Wind_Speed
4 4 4 4 5 5 5 5 5 4 5 6 7 7 6 6 6 5 5 4 4 4 4 4 4 4 4 4 5 5 5 5 5 5 6 6 6 6 6 6 6 6 7
4 4 4 4 4 5 5 5 4 5 5 6 6 6 6 6 5 4 4 3 3 3 3 3 4 4 4 4 4 4 5 5 5 5 6 6 6 6 6 5 6 7 8
3 3 3 4 4 5 5 5 5 4 5 5 5 5 5 5 4 3 2 3 3 3 2 3 3 3 4 3 3 3 4 4 5 5 5 6 6 6 6 6 6 7 7
3 2 2 4 4 5 5 5 5 5 5 4 4 5 4 4 3 3 2 3 3 2 2 2 3 3 3 3 3 3 3 3 4 4 5 5 5 6 6 6 7 7 7
4 3 3 3 4 4 4 5 4 5 4 4 4 4 4 3 3 3 3 2 3 2 2 2 2 2 2 2 2 3 3 3 4 4 5 5 5 5 6 6 6 6 6
4 4 4 4 4 4 4 4 5 5 4 4 4 4 3 3 3 3 2 2 3 2 2 1 1 1 1 1 1 2 2 3 3 3 4 4 4 5 5 5 5 5 5
5 5 5 5 4 4 4 4 5 5 5 4 4 3 3 2 2 2 2 2 2 2 2 1 1 1 1 1 2 2 1 2 2 3 3 3 3 4 4 4 4 4 4
7 7 6 5 4 4 4 4 4 5 5 4 3 3 2 3 2 2 2 2 1 1 2 2 2 2 2 1 2 2 1 2 2 2 2 3 3 3 3 3 3 3 4
8 7 6 5 4 4 3 3 3 4 4 3 3 3 2 2 2 2 2 2 1 1 2 2 2 2 2 2 2 2 2 2 2 3 2 3 3 3 3 3 3 3 3
9 8 7 5 4 3 3 3 3 2 3 3 2 2 2 2 2 2 2 2 2 1 2 2 2 2 2 2 3 3 3 2 2 2 2 3 3 3 3 3 2 2 2
10 9 8 6 5 3 3 3 3 3 3 3 3 3 2 2 2 2 2 2 2 2 2 2 2 3 2 3 3 2 2 2 3 3 3 3 3 3 3 3 2 2 2
11 10 9 7 5 4 4 3 3 3 3 2 2 3 2 2 2 2 2 2 2 2 2 2 3 3 3 3 3 3 2 2 3 3 3 3 3 3 3 3 3 3 3
12 11 10 8 7 5 5 4 3 2 2 2 2 2 2 2 2 2 2 2 2 2 2 3 4 4 3 3 3 3 2 3 3 3 4 4 3 3 3 3 3 3 3
13 12 11 10 8 7 6 4 2 2 2 2 2 2 2 1 1 3 3 3 2 3 3 3 3 3 3 3 3 3 3 3 3 4 4 4 4 4 4 4 4 4 4
14 13 12 11 9 8 7 6 3 1 2 2 2 2 2 2 2 2 3 3 4 3 3 4 4 3 3 4 4 4 4 4 4 4 4 4 4 5 5 5 5 5 5
15 14 14 12 11 10 9 8 5 3 1 1 2 2 2 2 2 3 3 4 3 4 4 4 4 4 4 5 5 5 5 5 5 5 5 5 5 5 6 6 7 7 7
16 15 15 14 12 10 9 8 7 4 3 1 1 2 2 3 3 3 4 4 4 4 5 5 5 5 5 6 6 6 6 6 6 6 6 6 6 6 7 7 8 8 8
16 15 15 14 13 11 10 9 8 6 4 2 1 1 3 3 3 4 5 5 5 4 5 6 7 6 6 6 6 7 7 8 8 7 8 8 8 8 8 9 9 9 9
15 15 15 14 13 12 10 9 8 7 5 3 2 1 2 3 4 5 6 6 6 5 5 6 7 7 8 8 8 8 9 9 10 9 9 10 10 11 10 10 11 11 11
15 14 14 14 13 12 11 10 9 7 6 5 3 2 1 2 3 4 6 6 6 6 5 6 7 8 8 8 9 9 10 10 11 11 11 11 12 13 12 12 12 13 12
14 14 14 14 13 13 12 10 10 8 7 6 5 3 2 2 2 3 5 6 6 6 6 6 7 7 8 9 9 10 11 12 12 12 12 13 14 14 14 15 14 14 14
14 13 13 13 13 13 12 11 10 9 8 7 6 4 4 3 2 2 2 4 6 7 7 7 8 8 9 9 10 11 12 12 12 12 13 14 14 15 16 16 17 17 17
13 13 13 13 12 12 12 12 11 10 9 8 7 6 5 3 2 2 3 3 4 5 7 8 9 9 10 11 11 12 12 12 13 13 14 14 15 16 16 17 18 19 18
12 13 13 13 12 12 12 12 11 10 9 8 8 7 7 5 3 3 3 3 4 4 6 8 9 10 11 12 13 14 14 15 15 15 15 15 16 16 17 18 18 18 19
11 11 12 13 12 12 12 11 11 11 10 9 8 7 6 6 5 5 4 5 5 6 6 7 8 10 12 13 14 15 15 16 16 16 16 17 18 18 18 18 18 19 19
10 10 10 11 12 12 12 11 11 11 10 9 8 8 6 7 6 6 6 6 6 7 7 8 9 10 11 12 13 15 15 15 16 17 17 18 19 20 20 19 19 19 20
Wind_Direction
72 86 105 114 116 115 119 115 107 112 114 116 115 110 113 110 109 107 107 103 100 100 100 95 91 89 90 93 90 90 93 102 105 107 105 101 99 100 100 101 102 105 113
70 93 108 103 92 95 98 98 106 108 114 116 112 109 111 114 116 116 116 115 113 106 98 99 95 89 88 91 88 91 92 103 111 107 105 102 101 100 100 103 106 108 113
71 98 116 102 93 93 100 101 105 106 102 114 121 122 123 127 131 135 139 136 129 116 101 106 100 94 94 95 92 93 93 99 114 111 108 106 105 103 103 104 109 111 113
62 83 110 102 101 99 99 98 103 108 102 110 125 135 140 142 146 147 156 149 145 130 115 116 114 102 102 103 101 98 99 104 112 113 108 108 105 102 103 103 109 112 114
64 76 93 101 105 99 96 99 104 107 105 110 125 137 147 145 147 145 153 158 156 149 131 121 126 113 108 105 102 108 112 120 114 115 114 113 108 106 109 110 109 113 114
63 73 84 95 105 107 104 105 106 104 106 118 126 128 137 138 143 145 141 148 151 151 149 145 145 146 132 106 125 137 127 131 125 129 130 122 113 110 114 115 113 113 116
60 67 79 90 94 103 107 108 114 110 105 108 124 130 135 146 159 157 142 150 163 167 165 179 188 188 182 151 167 166 157 141 137 142 146 135 126 120 122 120 120 121 124
65 69 77 87 90 92 100 114 117 114 109 104 109 115 128 143 150 143 148 161 169 200 203 203 195 192 189 185 182 177 186 164 155 151 153 151 144 137 139 136 134 132 133
63 71 79 82 87 92 97 119 126 125 120 118 112 110 107 121 136 157 171 185 194 228 229 218 202 206 195 188 182 178 173 176 173 169 165 174 167 159 157 159 148 142 142
58 66 73 76 81 88 97 117 139 149 139 134 132 119 113 121 133 168 189 201 212 228 242 227 217 203 185 185 181 178 175 181 182 183 185 185 183 175 175 173 165 160 163
54 58 61 64 73 84 93 110 137 149 150 147 147 139 124 123 144 159 168 186 197 216 237 217 196 198 187 186 180 182 184 182 182 186 183 188 191 192 196 197 200 194 195
53 54 55 63 65 68 76 101 128 138 145 152 145 149 150 144 148 162 169 173 186 204 226 199 189 187 191 188 185 192 195 191 194 188 183 191 198 204 209 217 222 219 216
52 53 54 59 60 63 72 84 112 126 140 151 143 144 148 150 163 173 177 187 193 210 214 207 198 192 200 203 196 202 202 210 206 193 197 203 210 215 222 226 231 231 234
49 52 53 56 54 54 61 73 95 125 146 163 161 166 164 169 180 197 203 203 211 220 216 215 202 198 211 214 213 212 219 223 217 208 216 224 226 230 235 235 238 243 247
49 49 50 51 50 48 48 52 64 99 163 187 193 201 205 216 227 227 220 221 219 222 225 224 218 215 229 228 228 223 223 229 233 228 230 236 236 242 246 246 246 247 254
49 49 48 47 47 48 48 49 55 65 107 185 210 224 229 228 227 228 231 224 219 223 228 227 227 230 240 242 240 235 232 241 242 243 243 247 249 252 254 255 257 257 260
44 45 46 46 47 50 51 48 47 56 67 87 199 213 223 237 237 230 233 234 227 228 234 234 233 240 246 245 243 244 243 250 254 259 257 255 257 259 259 259 260 262 265
40 42 43 44 45 47 47 45 45 47 49 47 53 235 240 245 248 246 240 240 239 245 248 245 246 249 247 247 248 252 252 254 260 264 264 264 262 261 261 261 263 265 269
38 40 41 41 42 43 41 41 42 38 36 28 23 334 257 247 247 251 249 244 246 252 257 257 255 254 252 255 258 260 262 261 263 264 267 269 266 265 265 265 266 268 271
37 38 38 39 40 39 38 37 36 33 30 22 10 10 315 258 249 249 252 246 246 250 254 261 265 257 254 258 261 264 267 269 269 268 267 269 269 267 265 267 268 270 272
33 34 35 35 35 36 35 34 32 30 27 19 8 349 343 310 278 253 249 246 248 252 256 263 267 261 260 259 263 266 268 269 270 272 270 270 271 269 267 268 268 271 272
29 29 30 30 31 31 31 31 30 30 26 19 14 2 350 339 343 321 271 257 254 255 259 264 265 263 267 267 267 266 268 269 271 276 275 273 271 269 269 269 270 272 272
25 25 25 27 29 27 26 28 30 29 27 23 19 17 16 8 17 1 328 299 273 265 264 266 268 270 270 269 268 267 268 272 272 275 277 276 274 272 271 270 271 271 272
20 21 22 23 25 25 25 26 28 29 29 28 27 25 27 29 21 6 341 322 307 295 283 274 271 272 271 270 270 271 271 271 272 275 275 276 277 274 271 271 272 272 272
14 15 16 17 20 22 24 24 24 26 27 26 24 20 22 24 17 2 343 335 319 308 301 294 287 280 274 271 272 273 272 272 273 275 276 276 277 276 274 275 275 272 272
3 5 7 10 13 16 18 19 19 22 22 21 20 18 16 7 360 352 346 338 331 322 311 304 301 294 284 278 276 275 274 274 276 276 276 277 279 278 277 277 277 274 273
Height
5876 5876 5877 5877 5877 5877 5878 5879 5879 5880 5881 5882 5883 5884 5885 5886 5888 5889 5890 5891 5892 5892 5893 5893 5894 5894 5894 5895 5895 5895 5895 5895 5896 5896 5896 5897 5897 5897 5897 5898 5898 5898 5898
5877 5877 5877 5877 5877 5878 5878 5879 5880 5881 5881 5882 5884 5885 5886 5887 5889 5890 5891 5892 5892 5893 5893 5894 5894 5895 5895 5895 5896 5896 5896 5896 5896 5897 5897 5897 5898 5898 5898 5899 5899 5899 5899
5878 5878 5878 5878 5878 5878 5879 5880 5880 5881 5882 5883 5884 5886 5887 5888 5889 5890 5891 5892 5893 5894 5894 5894 5895 5895 5896 5896 5896 5896 5897 5897 5897 5897 5898 5898 5899 5899 5899 5900 5900 5900 5900
5878 5878 5878 5878 5878 5879 5880 5880 5880 5881 5882 5884 5885 5886 5887 5889 5890 5891 5892 5893 5894 5894 5895 5895 5896 5896 5896 5897 5897 5897 5897 5898 5898 5898 5899 5899 5900 5900 5900 5901 5901 5901 5902
5879 5879 5879 5879 5879 5879 5880 5880 5881 5882 5883 5884 5885 5886 5888 5889 5890 5891 5892 5893 5894 5895 5895 5896 5896 5897 5897 5897 5897 5898 5898 5899 5899 5899 5900 5900 5901 5901 5901 5902 5902 5902 5903
5880 5880 5879 5879 5880 5880 5880 5881 5882 5882 5883 5885 5886 5887 5888 5889 5890 5891 5892 5893 5894 5895 5895 5896 5897 5897 5897 5897 5898 5898 5899 5899 5900 5900 5901 5901 5902 5902 5902 5902 5903 5903 5903
5881 5880 5880 5880 5880 5881 5881 5881 5882 5883 5884 5885 5886 5887 5888 5889 5890 5891 5892 5893 5894 5895 5896 5896 5897 5897 5897 5898 5898 5899 5899 5900 5900 5900 5901 5902 5902 5903 5903 5903 5903 5904 5904
5882 5881 5881 5881 5881 5881 5882 5882 5882 5883 5884 5885 5886 5887 5888 5889 5890 5891 5892 5893 5894 5895 5895 5896 5896 5897 5897 5898 5898 5899 5899 5900 5900 5901 5901 5902 5903 5903 5904 5904 5904 5904 5905
5883 5882 5882 5881 5882 5882 5882 5883 5883 5884 5885 5886 5886 5887 5888 5889 5890 5891 5892 5893 5894 5894 5895 5896 5896 5897 5897 5898 5898 5899 5900 5900 5900 5901 5901 5902 5903 5903 5904 5904 5905 5905 5905
5884 5883 5883 5883 5882 5883 5883 5883 5884 5885 5885 5886 5887 5888 5888 5889 5890 5891 5892 5893 5893 5894 5895 5895 5896 5897 5898 5898 5899 5899 5900 5900 5901 5901 5902 5902 5903 5903 5904 5904 5905 5905 5906
5886 5885 5884 5884 5884 5883 5884 5884 5884 5885 5886 5887 5887 5888 5889 5889 5890 5890 5892 5893 5893 5894 5895 5895 5896 5897 5898 5898 5899 5899 5900 5900 5901 5901 5902 5902 5903 5903 5904 5904 5905 5905 5906
5887 5886 5885 5885 5885 5884 5884 5884 5885 5885 5886 5887 5888 5888 5889 5890 5890 5891 5892 5893 5893 5894 5895 5895 5896 5897 5897 5898 5898 5899 5900 5900 5901 5901 5902 5902 5903 5903 5904 5904 5905 5905 5906
5889 5888 5887 5886 5886 5885 5885 5885 5885 5886 5886 5887 5888 5889 5889 5890 5890 5891 5892 5893 5893 5894 5894 5895 5896 5897 5897 5898 5898 5899 5900 5900 5901 5901 5902 5902 5903 5903 5904 5904 5905 5905 5905
5891 5890 5889 5888 5887 5886 5886 5886 5886 5886 5887 5887 5888 5889 5889 5890 5890 5891 5892 5892 5893 5894 5894 5895 5896 5897 5897 5898 5898 5899 5900 5900 5901 5901 5902 5902 5903 5903 5903 5904 5904 5905 5905
5893 5892 5891 5889 5888 5888 5887 5886 5886 5886 5887 5887 5888 5888 5889 5890 5890 5891 5891 5892 5893 5893 5894 5895 5896 5896 5897 5897 5898 5899 5899 5900 5900 5901 5901 5902 5902 5902 5903 5903 5904 5904 5904
5896 5894 5893 5891 5890 5889 5888 5887 5887 5887 5887 5887 5888 5888 5889 5889 5890 5890 5891 5891 5892 5893 5894 5894 5895 5896 5896 5897 5898 5898 5899 5899 5900 5900 5901 5901 5901 5902 5902 5902 5903 5903 5903
5898 5897 5895 5893 5892 5891 5890 5889 5888 5888 5887 5887 5888 5888 5888 5889 5890 5890 5891 5891 5891 5892 5893 5894 5894 5895 5896 5896 5897 5898 5898 5899 5899 5899 5900 5900 5901 5901 5901 5901 5901 5901 5901
5901 5899 5897 5895 5894 5892 5891 5890 5889 5889 5888 5888 5888 5887 5888 5888 5889 5889 5890 5890 5891 5891 5892 5893 5894 5894 5895 5896 5896 5897 5897 5898 5898 5898 5899 5899 5899 5900 5900 5900 5900 5900 5900
5904 5901 5900 5898 5896 5894 5893 5892 5891 5890 5889 5888 5887 5887 5887 5887 5888 5888 5889 5889 5890 5891 5891 5892 5893 5893 5894 5895 5895 5896 5896 5896 5897 5897 5897 5897 5898 5898 5898 5898 5898 5898 5898
5906 5904 5902 5900 5898 5896 5895 5893 5892 5891 5890 5889 5888 5887 5887 5887 5887 5887 5888 5888 5889 5889 5890 5891 5891 5892 5893 5893 5894 5894 5894 5894 5895 5895 5895 5895 5895 5895 5896 5896 5896 5896 5896
5908 5906 5904 5902 5900 5898 5896 5895 5893 5892 5890 5889 5888 5887 5887 5887 5887 5886 5887 5887 5888 5888 5889 5890 5890 5890 5891 5891 5892 5892 5892 5892 5892 5892 5892 5892 5893 5893 5893 5893 5893 5893 5893
5909 5907 5905 5903 5901 5899 5897 5896 5894 5892 5891 5890 5888 5888 5887 5887 5887 5886 5886 5887 5887 5887 5888 5888 5888 5889 5889 5889 5890 5890 5890 5891 5890 5890 5890 5890 5890 5889 5889 5889 5889 5890 5890
5911 5909 5907 5904 5902 5901 5899 5897 5895 5893 5892 5891 5889 5888 5887 5887 5887 5887 5887 5886 5886 5886 5886 5887 5887 5887 5887 5887 5887 5887 5887 5887 5887 5888 5887 5887 5886 5886 5886 5886 5886 5886 5885
5912 5910 5908 5906 5904 5902 5900 5898 5896 5895 5893 5892 5890 5889 5888 5887 5887 5887 5887 5886 5886 5885 5885 5885 5885 5885 5885 5885 5884 5884 5884 5884 5884 5884 5884 5884 5883 5882 5882 5882 5882 5881 5881
5913 5911 5909 5907 5905 5903 5901 5899 5898 5896 5894 5893 5892 5890 5889 5888 5888 5887 5886 5886 5885 5884 5884 5883 5883 5882 5882 5882 5881 5881 5881 5880 5880 5880 5880 5880 5879 5878 5878 5878 5877 5877 5877
5913 5911 5910 5908 5906 5904 5902 5900 5898 5897 5895 5894 5893 5891 5890 5889 5888 5887 5886 5885 5884 5883 5883 5882 5881 5880 5879 5878 5878 5877 5877 5877 5876 5876 5876 5875 5875 5874 5874 5873 5873 5873 5872